[ hide orbit diagram ]
For accurate long-term ephemerides, please instead use our Horizons system.This orbit viewer was implemented using two-body methods, and hence should not be used for determining accurate long-term trajectories (over several years or decades) or planetary encounter circumstances.
Orbital Elements at Epoch 2459200.5 (2020-Dec-17.0) TDB
Reference: JPL 22 (heliocentric ecliptic J2000)
Element | Value | Uncertainty (1-sigma) | Units |
e | .2073326468433292 | 4.3348e-08 | |
a | 2.167387406602493 | 7.936e-09 | au |
q | 1.718017238856699 | 9.589e-08 | au |
i | 5.206552523073316 | 4.094e-06 | deg |
node | 240.4287849192092 | 4.598e-05 | deg |
peri | 62.94456117589032 | 4.7151e-05 | deg |
M | 248.9454172240777 | 8.2297e-06 | deg |
tp | 2459560.031734026079 (2021-Dec-11.53173403) | 2.6981e-05 | TDB |
period | 1165.475759884179 3.19 | 6.4012e-06 1.753e-08 | d yr |
n | .308886733118993 | 1.6965e-09 | deg/d |
Q | 2.616757574348287 | 9.5814e-09 | au |
|
| | Orbit Determination Parameters
Additional Information
|
[ show covariance matrix ]
Physical Parameter Table
Parameter |
Symbol |
Value |
Units |
Sigma |
Reference |
Notes |
absolute magnitude |
H |
16.5 |
|
n/a |
MPO449610 |
|
|
100445 (1996 RA4) Discovered 1996-Sep-12 by Casulli, V. S. at Colleverde |
Reference: 20051019/Numbers.arc | Last Updated: 2005-10-26 |
|
[ show close-approach data ]
|